Regional Weather Roundup
Issued by NWS

Home | Current Version | Previous Version | Graphics & Text | Print | Product List | Glossary On
Versions: 1 2 3 4 5 6 7 8 9 10 11 12 13 14 15 16 17 18 19 20 21 22 23 24 25 26 27 28 29 30 31 32 33 34 35 36 37 38 39 40 41 42 43 44 45 46 47 48 49 50
000
ASUS45 KBOI 221810
RWRID
WEATHER ROUNDUP FOR IDAHO
NATIONAL WEATHER SERVICE BOISE ID
1200 PM MDT FRI AUG 22 2014

NOTE: "FAIR" INDICATES FEW OR NO CLOUDS BELOW 12000 FEET
WITH NO SIGNIFICANT WEATHER AND/OR OBSTRUCTIONS TO VISIBILITY

IDZ012-014-221900-
SOUTHWEST IDAHO


CITY           SKY/WX    TMP DP  RH WIND       PRES   REMARKS
BOISE          SUNNY     71  37  28 NW8       29.93F
CALDWELL       SUNNY     72  39  30 NW6       29.94S
MOUNTAIN HOME  MOSUNNY   69  54  57 E7        29.93R
$$

IDZ016-017-221900-
SOUTHCENTRAL IDAHO


CITY           SKY/WX    TMP DP  RH WIND       PRES   REMARKS
BURLEY         CLOUDY    64  56  75 NE7       29.98R
JEROME         CLOUDY    66  55  67 E14G21    29.96F
TWIN FALLS     PTSUNNY   69  57  65 E9        29.96F
$$

IDZ019>023-221900-
SOUTHEAST IDAHO


CITY           SKY/WX    TMP DP  RH WIND       PRES   REMARKS
IDAHO FALLS    CLOUDY    58  51  78 E3        30.06F
POCATELLO      PTSUNNY   58  53  84 E8        30.05R
REXBURG        CLOUDY    59  50  72 CALM      30.08F
$$

IDZ006-010-011-018-031-032-221900-
CENTRAL IDAHO MOUNTAINS


CITY           SKY/WX    TMP DP  RH WIND       PRES   REMARKS
MCCALL         MOSUNNY   65  37  35 VRB5      29.98F
HAILEY         PTSUNNY   57  54  88 S8        30.08R
STANLEY          N/A     46  43  89 N6        30.09F
SALMON         CLOUDY    63  50  63 CALM      30.00S
CHALLIS        LGT RAIN  50  46  86 VRB3      30.10S
$$

IDZ002-004-006-007-026-221900-
NORTHERN IDAHO


CITY           SKY/WX    TMP DP  RH WIND       PRES   REMARKS
LEWISTON       CLOUDY    69  46  43 CALM      29.96S
LOWELL           N/A     71  53  52 VRB3      29.92F
COEUR D`ALENE  CLOUDY    63  54  72 N16G22    30.01R
MULLAN PASS    CLOUDY    50  45  83 CALM      30.11S
$$



USA.gov is the U.S. government's official web portal to all federal, state and local government web resources and services.